Powrót do katalogu

DELTA 1 DEB

AktywnyPO
NORAD 26831·DEBRIS·🇺🇸 United States

Wystrzelony Jun 12, 1975 z Vandenberg Space Force Base

Loading…

Następne Przeloty (najbliższe 24 godziny)

TLE

ŚwieżeSource: Space-Track

Epoka: Sep 14, 2026, 11:41 UTC

1 26831U 75052KK  26257.48726513  .00002555  00000-0  25858-2 0  9994
2 26831  99.8753 347.2796 0065255 137.3408 236.5400 13.77192934666699

Śledź DELTA 1 DEB w czasie rzeczywistym z AllMySat

Download on the App Store